Weather History for KHCD - January, 2012

Change the Weather History Date:

Wednesday, January 18, 2012

  Actual Average Record
Temperature  
Mean Temperature 14 °F -  
Max Temperature 29 °F 22 °F 49 °F (1981)
Min Temperature 0 °F 3 °F -34 °F (1970)
Degree Days  
Heating Degree Days 50    
Moisture  
Dew Point 6 °F    
Average Humidity 74    
Maximum Humidity 83    
Minimum Humidity 59    
Precipitation  
Precipitation 0.00 in - - ()
Sea Level Pressure  
Sea Level Pressure 29.89 in    
Wind  
Wind Speed 8 mph (South)    
Max Wind Speed 28 mph    
Max Gust Speed 33 mph    
Visibility 10 miles    
Events      
Averages and records for this station are not official NWS values.
T = Trace of Precipitation, MM = Missing Value Source: NWS Daily Summary

Daily Weather History Graph

Daily Weather History Graph

Search for Another Location

Airport or City:

Trip Planner

Search our weather history database for the weather conditions in past years. The results will help you decide how hot, cold, wet, or windy it might be!

Date:

Astronomy

Jan. 18, 2012 Rise Set
Actual Time 7:50 AM CST 5:05 PM CST
Civil Twilight 7:17 AM CST 5:38 PM CST
Nautical Twilight 6:41 AM CST 6:14 PM CST
Astronomical Twilight 6:06 AM CST 6:49 PM CST
Moon 3:21 AM CST (1/18) 12:43 PM CST (1/18)
Length of Visible Light 10h 20m
Length of Day
9h 15m
Waning Crescent, 24% of the Moon is Illuminated
Jan 18
Waning Crescent
Jan 23
New
Jan 30
First Quarter
Feb 7
Full
Feb 14
Last Quarter

Hourly Weather History & Observations

Time (CST) Temp. Windchill Dew Point Humidity Pressure Visibility Wind Dir Wind Speed Gust Speed Precip Events Conditions
12:12 AM 0.5 °F - -4.0 °F 81% 30.18 in 10.0 mi Calm Calm - N/A   Clear
12:32 AM -0.4 °F - -4.7 °F 82% 30.18 in 10.0 mi Calm Calm - N/A   Clear
12:53 AM -0.6 °F - -4.9 °F 82% 30.18 in 10.0 mi Calm Calm - N/A   Clear
1:12 AM -0.6 °F -8.5 °F -4.9 °F 82% 30.17 in 10.0 mi SSE 3.5 mph - N/A   Clear
1:33 AM -0.4 °F - -4.7 °F 82% 30.15 in 10.0 mi Calm Calm - N/A   Clear
1:53 AM -0.6 °F - -4.9 °F 82% 30.14 in 10.0 mi Calm Calm - N/A   Clear
2:12 AM -0.0 °F -7.9 °F -4.2 °F 83% 30.13 in 10.0 mi SE 3.5 mph - N/A   Clear
2:33 AM -0.0 °F -9.9 °F -4.4 °F 82% 30.12 in 10.0 mi SE 4.6 mph - N/A   Clear
2:53 AM 0.5 °F -11.0 °F -4.0 °F 81% 30.11 in 10.0 mi SE 5.8 mph - N/A   Clear
3:12 AM 1.9 °F -9.2 °F -2.4 °F 82% 30.11 in 10.0 mi SSE 5.8 mph - N/A   Clear
3:33 AM 1.9 °F -10.6 °F -2.7 °F 81% 30.09 in 10.0 mi SE 6.9 mph - N/A   Clear
3:52 AM 1.9 °F -10.6 °F -2.4 °F 82% 30.08 in 10.0 mi ESE 6.9 mph - N/A   Clear
4:13 AM 1.9 °F -10.6 °F -2.4 °F 82% 30.06 in 10.0 mi SE 6.9 mph - N/A   Clear
4:33 AM 2.7 °F -10.9 °F -1.7 °F 82% 30.03 in 10.0 mi SE 8.1 mph - N/A   Clear
4:52 AM 2.7 °F -12.0 °F -1.7 °F 82% 30.02 in 10.0 mi SE 9.2 mph - N/A   Clear
5:12 AM 3.2 °F -10.3 °F -1.3 °F 82% 30.00 in 10.0 mi SE 8.1 mph - N/A   Clear
5:32 AM 4.5 °F -11.5 °F 0.1 °F 82% 29.97 in 10.0 mi SE 11.5 mph - N/A   Clear
5:53 AM 5.7 °F -10.7 °F 1.4 °F 82% 29.96 in 10.0 mi SE 12.7 mph - N/A   Clear
6:13 AM 6.8 °F -8.6 °F 2.3 °F 82% 29.95 in 10.0 mi SE 11.5 mph 16.1 mph N/A   Clear
6:32 AM 6.8 °F -7.8 °F 2.3 °F 82% 29.93 in 10.0 mi SE 10.4 mph 17.3 mph N/A   Clear
6:52 AM 6.8 °F -7.8 °F 2.3 °F 82% 29.92 in 10.0 mi SE 10.4 mph - N/A   Clear
7:13 AM 7.0 °F -7.5 °F 2.5 °F 82% 29.91 in 10.0 mi SE 10.4 mph - N/A   Clear
7:33 AM 7.2 °F -3.0 °F 2.7 °F 82% 29.91 in 10.0 mi SSE 5.8 mph - N/A   Clear
7:52 AM 9.5 °F -1.5 °F 5.0 °F 82% 29.90 in 10.0 mi SE 6.9 mph - N/A   Clear
8:13 AM 9.5 °F -3.5 °F 5.0 °F 82% 29.89 in 10.0 mi SE 9.2 mph - N/A   Clear
8:32 AM 9.5 °F -3.5 °F 5.0 °F 82% 29.89 in 10.0 mi SE 9.2 mph - N/A   Clear
8:53 AM 10.6 °F -0.2 °F 5.7 °F 81% 29.87 in 10.0 mi SSE 6.9 mph - N/A   Clear
9:12 AM 12.0 °F 0.5 °F 6.8 °F 80% 29.86 in 10.0 mi SSE 8.1 mph - N/A   Clear
9:32 AM 14.5 °F -0.2 °F 9.3 °F 80% 29.85 in 10.0 mi South 13.8 mph 19.6 mph N/A   Clear
9:52 AM 17.1 °F 2.5 °F 10.4 °F 75% 29.83 in 10.0 mi South 15.0 mph 21.9 mph N/A   Clear
10:12 AM 17.1 °F 2.5 °F 10.4 °F 75% 29.82 in 10.0 mi South 15.0 mph 26.5 mph N/A   Clear
10:32 AM 19.4 °F 6.0 °F 12.0 °F 73% 29.82 in 10.0 mi South 13.8 mph 24.2 mph N/A   Scattered Clouds
10:53 AM 19.4 °F 4.5 °F 12.0 °F 73% 29.81 in 10.0 mi South 17.3 mph 23.0 mph N/A   Clear
11:13 AM 20.1 °F 5.9 °F 11.1 °F 68% 29.79 in 10.0 mi South 16.1 mph 23.0 mph N/A   Clear
11:32 AM 20.8 °F 7.3 °F 11.5 °F 67% 29.78 in 10.0 mi South 15.0 mph 24.2 mph N/A   Clear
11:53 AM 22.1 °F 8.9 °F 12.4 °F 66% 29.77 in 10.0 mi South 15.0 mph 19.6 mph N/A   Clear
12:13 PM 23.0 °F 9.2 °F 12.9 °F 65% 29.74 in 10.0 mi South 17.3 mph 20.7 mph N/A   Clear
12:32 PM 24.6 °F 11.7 °F 14.0 °F 64% 29.72 in 10.0 mi South 16.1 mph 21.9 mph N/A   Clear
12:53 PM 25.7 °F 13.5 °F 14.9 °F 64% 29.70 in 10.0 mi South 15.0 mph 21.9 mph N/A   Clear
1:12 PM 27.1 °F 15.9 °F 15.4 °F 61% 29.69 in 10.0 mi SSW 13.8 mph 19.6 mph N/A   Clear
1:32 PM 29.7 °F 19.1 °F 17.2 °F 60% 29.69 in 10.0 mi SSW 13.8 mph 18.4 mph N/A   Clear
1:53 PM 29.7 °F 19.1 °F 17.1 °F 59% 29.67 in 10.0 mi SSW 13.8 mph 20.7 mph N/A   Clear
2:12 PM 29.7 °F 19.1 °F 17.8 °F 61% 29.69 in 10.0 mi SW 13.8 mph 19.6 mph N/A   Clear
2:32 PM 29.7 °F 19.6 °F 18.1 °F 62% 29.68 in 10.0 mi SSW 12.7 mph 16.1 mph N/A   Clear
2:52 PM 29.7 °F 19.6 °F 18.0 °F 62% 29.66 in 10.0 mi SSW 12.7 mph 19.6 mph N/A   Clear
3:13 PM 29.7 °F 19.6 °F 18.1 °F 62% 29.66 in 10.0 mi SW 12.7 mph - N/A   Scattered Clouds
3:33 PM 29.7 °F 18.2 °F 18.1 °F 62% 29.66 in 10.0 mi WSW 16.1 mph 19.6 mph N/A   Mostly Cloudy
3:52 PM 29.7 °F 19.6 °F 18.1 °F 62% 29.67 in 10.0 mi WSW 12.7 mph 19.6 mph N/A   Overcast
4:32 PM 26.6 °F 13.1 °F 15.8 °F 64% 29.68 in 10.0 mi WNW 19.6 mph 26.5 mph N/A   Overcast
4:52 PM 22.3 °F 7.0 °F 12.2 °F 65% 29.70 in 10.0 mi WNW 20.7 mph 27.6 mph N/A   Overcast
5:12 PM 19.9 °F 1.8 °F 10.9 °F 68% 29.72 in 10.0 mi West 27.6 mph 33.4 mph N/A   Overcast
5:33 PM 15.1 °F -2.0 °F 7.3 °F 71% 29.75 in 10.0 mi WNW 19.6 mph 29.9 mph N/A   Mostly Cloudy
5:53 PM 12.0 °F -7.7 °F 3.2 °F 68% 29.76 in 10.0 mi West 24.2 mph 31.1 mph N/A   Scattered Clouds
6:12 PM 9.9 °F -9.3 °F 0.9 °F 67% 29.79 in 10.0 mi WNW 20.7 mph 32.2 mph N/A   Clear
6:32 PM 9.5 °F -8.8 °F 0.5 °F 67% 29.81 in 10.0 mi WNW 18.4 mph 31.1 mph N/A   Clear
6:53 PM 6.6 °F -13.6 °F -2.0 °F 68% 29.82 in 10.0 mi WNW 20.7 mph 33.4 mph N/A   Clear
7:12 PM 4.5 °F -16.9 °F -4.0 °F 68% 29.82 in 10.0 mi WNW 21.9 mph 27.6 mph N/A   Clear
7:33 PM 3.4 °F -17.4 °F -4.9 °F 68% 29.83 in 10.0 mi WNW 19.6 mph 28.8 mph N/A   Clear
7:53 PM 2.3 °F -17.7 °F -5.8 °F 69% 29.85 in 10.0 mi WNW 17.3 mph 24.2 mph N/A   Clear
8:12 PM 1.9 °F -19.2 °F -6.2 °F 69% 29.88 in 10.0 mi WNW 19.6 mph 25.3 mph N/A   Clear
8:33 PM 1.8 °F -19.5 °F -6.5 °F 68% 29.89 in 10.0 mi WNW 19.6 mph 24.2 mph N/A   Clear
8:52 PM 0.5 °F -20.6 °F -7.8 °F 68% 29.90 in 10.0 mi WNW 18.4 mph 27.6 mph N/A   Clear
9:32 PM -0.0 °F -22.4 °F -8.7 °F 67% 29.90 in 10.0 mi NW 20.7 mph 26.5 mph N/A   Clear
9:52 PM -0.4 °F -21.7 °F -9.4 °F 66% 29.91 in 10.0 mi NW 18.4 mph 25.3 mph N/A   Clear
10:13 PM -0.4 °F -19.2 °F -9.6 °F 65% 29.92 in 10.0 mi WNW 13.8 mph 19.6 mph N/A   Clear
10:33 PM -0.6 °F -20.1 °F -9.4 °F 66% 29.92 in 10.0 mi WNW 15.0 mph 21.9 mph N/A   Clear
10:52 PM -0.6 °F -23.6 °F -9.9 °F 65% 29.92 in 10.0 mi NW 21.9 mph 28.8 mph N/A   Clear
11:13 PM -2.2 °F -25.7 °F -12.1 °F 63% 29.94 in 10.0 mi NW 21.9 mph 29.9 mph N/A   Clear
11:33 PM -3.1 °F -25.3 °F -13.0 °F 63% 29.95 in 10.0 mi NW 18.4 mph 25.3 mph N/A   Clear
11:53 PM -3.1 °F -25.8 °F -13.0 °F 63% 29.97 in 10.0 mi NW 19.6 mph 27.6 mph N/A   Clear